Location: ???????????
(54.5822°N, 39.1075°E)
Time: 06:24:32
(UTC+00:00)

Cosmos 1697 Rocket - Pass Details

Date: 19 May 2025
Orbit: 830 x 844 km, 71.0° (Epoch: 23 June)

Event Time Altitude Azimuth Distance (km) Brightness Sun altitude
Rises 19:35:03 0° 322° (NW) 3,408 7.6 -12.1°
Reaches altitude 10° 19:37:51 10° 310° (NW) 2,470 6.2 -12.3°
Maximum altitude 19:42:26 26° 256° (WSW) 1,610 4.3 -12.6°
Drops below altitude 10° 19:47:00 10° 202° (SSW) 2,460 4.7 -12.8°
Enters shadow 19:47:24 - 199° (SSW) 2,586 4.8 -12.9°
